Disclaimer   
Search Trains
 ♦ 
×
 
 
DOJ:
Dep:
SunMonTueWedThuFriSat
Class:
2SSLCCEx3AFC2A1A3E
Type:
 

Train Details
Words:
Pantry:
In-Coach Catering/Pantry Car
Loco:
Reversal:
Rake Reversal at Any Stn
Rake:
RSA:
With RSA
Inaug:
 to 
# Halts: to 
Trvl Time: to  (in hrs)
Distance: to  (in kms)
Speed: to  (in km/h)

Departure Details
Include nearby Stations:      ONLY this Station:
Dep Between:    
Dep PF#:
Reversal:
Rake Reversal at Dep Stn

Arrival Details
Include nearby Stations:      ONLY this Station:
Arr Days:
SunMonTueWedThuFriSat
Arr Between:    
Arr PF#:
Reversal:
Rake Reversal at Arr Stn

Search
2-month Availability Calendar
  Go  
 
Sat Jan 31, 2015 12:33:59 ISTHomeTrainsΣChainsAtlasPNRForumGalleryNewsFAQTripsMembersLoginFeedback
Sat Jan 31, 2015 12:33:59 IST
PostPostPost Trn TipPost Trn TipPost Stn TipPost Stn Tip
Latest...

54806/Jaipur Ahmedabad Passenger

Dec 31 2014 (3:41PM)
Change Departure Station:
Change Arrival Station:
Rake/Coach Composition
SL and GEN Coaches
RSA - Rake Sharing
3 different rounds (6 services) are run by the rakes of this train. 54803 Jodhpur (JU) - Ahemedabad (ADI) becomes 54806 for Ahmedabad - Ajmer (AII) which further goes to Jaipur (JP) as 54807. 54808 comes from Jaipur to Ajmer which further goes to Ahmedabad as 54805 and becomes 54804 from Ahmedabad to Jodhpur.
Pantry/Catering
???
Loco
  0
GEN
News    PNR    Forum    Time-Table    Availability    Fare Chart    Map    Arr/Dep History    Trips    Gallery    ΣChains    X/O    Timeline    
Travel Time: 4h 42m    15 halts    Distance: 125 km    Avg Speed: 26 km/hr
Type: Passenger
Zone: NWR/North Western
Departs @ 22:58
Platform# ???
SMTWTFS
DRW/Dharewada 
Arrives @ 03:40 +1 night
Platform# 10
SMTWTFS
ADI/Ahmedabad Junction 

15 halts. 33 intermediate Stations between Dharewada and Ahmedabad Junction

Show ALL intermediate Stations  Show Old Time-Table

#TrkCodeStation NameX/OArrivesAvgDepartsAvgHaltPFDay#KmSpeedElevZoneAddress
1|==|JPJaipur Junction  -05:35---1-516.159434mNWRJaipur, Rajasthan
2|==|KKUKanakpura  05:44-05:46-2m--1-507.274429mNWRJaipur, Rajasthan
3|==|SHNXSheo Singh PuraX  05:57-05:59-2m--1-493.772411mNWRJaipur, Rajasthan
4|==|JOBAsalpur Jobner  06:11-06:13-2m--1-479.472379mNWRJaipur, Rajasthan
5|==|HDAHirnodaX  06:21-06:23-2m--1-469.752400mNWRJaipur, Rajasthan
6|==|FLPhulera JunctionX  06:33-06:38-5m--1-461.046386mNWRPhulera, Rajasthan
7|==|NRINaraina  06:51-06:53-2m--1-451.163377mNWRAjmer, Rajasthan
8|==|DTRADantraX  06:58-07:00-2m--1-445.951366mNWRMDR 85, Rajasthan
9|==|SKSakhun  07:08-07:10-2m--1-439.159392mNWRAjmer, Rajasthan
10|==|SALISaliX  07:17-07:19-2m--1-432.270395mNWRAjmer, Rajasthan
11|==|GLTAGahlota  07:25-07:27-2m--1-425.251417mNWRKishangarh, Rajasthan
12|==|TLTiloniyaX  07:32-07:34-2m--1-420.943428mNWRTiloniya, Rajasthan
13|==|KSGKishangarhX  07:49-07:51-2m--1-410.236443mNWRKishangarh, Rajasthan
14|==|GEKGegal Akhri  08:07-08:09-2m--1-400.738459mNWRKishangarh, Rajasthan
15|==|LRLadpuraO  08:18-08:20-2m--1-395.014468mNWRAjmer, Rajasthan
16|-=|MDJNMadar Junction  08:48-08:50-2m--1-388.314490mNWRAjmer, Rajasthan
17|==|AIIAjmer Junction  09:20-10:05-45m--1-381.437464mNWRPin: 305001, Rajasthan
18!==!DOZDaurai  10:17-10:19-2m--1-374.038458mNWRMadar, Rajasthan
19!==!SDHSaradhnaX  10:32-10:34-2m--1-365.748461mNWRMangaliyawas, Rajasthan
20!==!MKRAMakrera  10:40-10:42-2m--1-360.962446mNWRKharwa, Rajasthan
21!==!MLIMangaliyawas  10:47-10:49-2m--1-355.757430mNWRMangliyawas Railway Station, Rajasthan
22!==!LNALamana  10:54-10:56-2m--1-351.030441mNWRBeawar, Rajasthan
23!==!KRWKharwaX  11:08-11:10-2m--1-344.962439mNWRAjmer, Rajasthan
24!==!PPFPiplajX  11:16-11:18-2m--1-338.735449mNWRBeawar, Rajasthan
25|--|BERBeawar  11:34-11:36-2m--1-329.249447mNWRBeawar, Rajasthan
26|--|APAAmarpura  11:43-11:45-2m--1-323.570468mNWRKharwa, Rajasthan
27|--|SEUSendra  11:52-11:54-2m--1-315.358427mNWRSabalpura, Rajasthan
28|--|BARBar  12:03-12:05-2m--1-306.670383mNWRHaripur, Rajasthan
29|--|HPHaripur  12:14-12:16-2m--1-296.068345mNWRPali, Rajasthan
30|--|GRIGuriyaO  12:23-12:25-2m--1-288.129323mNWRPali, Rajasthan
31|--|CNLChandawal  12:46-12:48-2m--1-277.986304mNWRPali, Rajasthan
32|--|BGXBagri SajjanpurX  12:52-12:54-2m--1-272.250298mNWRHaripur, Rajasthan
33|--|BQNBagri Nagar  12:59-13:01-2m--1-268.045295mNWRMarwar, Rajasthan
34|--|SODSojat Road  13:08-13:10-2m--1-262.756295mNWRSojat Road, Rajasthan
35|--|BFYBhesanaX  13:16-13:18-2m--1-257.256285mNWRMarwar, Rajasthan
36|--|DRSDhareshwar  13:25-13:27-2m--1-250.641275mNWRMarwar Jn, Rajasthan
37|--|MJMarwar JunctionX  13:40-13:55-15m--1-241.847267mNWRMarwar Junction, Rajasthan
38|--|AUWAAuwaX  14:06-14:08-2m--1-233.234265mNWRSomesar, Rajasthan
39|--|BGGBanta RaghunathgarhX  14:21-14:23-2m--1-225.860266mNWRSomesar, Rajasthan
40|--|BWABhinwaliya  14:29-14:31-2m--1-219.952268mNWRPindwara, Rajasthan
41|--|SOSSomesarX  14:38-14:40-2m--1-213.932269mNWRSomesar, Rajasthan
42|--|JALJawali  14:56-14:58-2m--1-205.465270mNWRRania, Rajasthan
43|--|BGPRBhagwanpuraX  15:05-15:07-2m--1-197.840276mNWRSomesar, Rajasthan
44|--|RANIRani  15:19-15:21-2m--1-189.855280mNWRRani 306115, Rajasthan
45|--|KZQKhimel  15:28-15:30-2m--1-183.448277mNWRJawai Bandh, Rajasthan
46|--|FAFalna  15:40-15:50-10m--1-175.380282mNWRFalna, Rajasthan
47|--|BRLYBiroliya  15:56-15:58-2m--1-167.370294mNWRBiroliya Rd, Rajasthan
48|--|JWBJawai BandhX  16:05-16:07-2m--1-159.138292mNWRPali, Rajasthan
49|--|MOIMori BeraX  16:22-16:24-2m--1-149.721323mNWRNana, Rajasthan
50|--|KTRKotharX  16:42-16:44-2m--1-143.526346mNWRPali, Rajasthan
51|--|NANANana  16:58-17:00-2m--1-137.360355mNWRNana, Rajasthan
52!=-|KVJKeshavganj  17:09-17:11-2m--1-128.368393mNWRJawai Bandh, Rajasthan
53!==!SOHSirohi Road  17:18-17:20-2m--1-120.367369mNWRPindwara, Rajasthan
54!==!BNSBanas  17:29-17:31-2m--1-110.263347mNWRSirohi Road, Rajasthan
55!==!SRPJSwarupGanj  17:39-17:41-2m--1-101.964334mNWRSirohi Road, Rajasthan
56!==!BMNBhimana  17:49-17:51-2m--1-93.359313mNWRAbu Road, Rajasthan
57!==!KWIKivarli  17:59-18:01-2m--1-85.459281mNWRShri Amirgadh, Rajasthan
58!==!MXOMorthala  18:07-18:09-2m--1-79.617267mNWRNH 14, Rajasthan
59!==!ABRAbu Road  18:20-18:40-20m--1-76.443264mNWRSirohi Dist, Rajasthan
60!==!MAAMaval  18:53-18:55-2m--1-67.139245mNWRNational Highway 14, Rajasthan
61!==!SIMShri Amirgadh  19:08-19:10-2m--1-58.727229mNWRAmirgadh, Gujarat
62!==!SZASarotra RoadXO  19:22-19:24-2m--1-53.410216mNWRSarotra, Gujarat
63!==!IQGIqbal GadhX  20:07-20:09-2m--1-45.915209mNWRBanaskantha, Gujarat
64!==!JTYJethi  20:33-20:35-2m--1-39.744212mNWRBANASKANTHA, Gujarat
65!==!CTTChitrasani  20:41-20:43-2m--1-35.346225mNWRChitrasani, Gujarat
66!==!KRJDKarjodaXO  20:50-20:52-2m--1-29.96234mNWRChhapi, Gujarat
67|-=!PNUPalanpur JunctionX  21:55-22:00-5m--1-23.872216mWRPalanpur, Gujarat
68|--|UMUmardashiXO  22:07-22:09-2m--1-15.515187mWRChitrasani, Gujarat
69|--|CHPChhapi  22:40-22:42-2m--1-7.633169mWRBanaskantha, Gujarat
70|--|DRWDharewada»X  22:56-22:58-2m--10.033145mWRUnjha, Gujarat
71|--|SIDSiddhpurX  23:08-23:10-2m--15.676136mWRState Highway 41, Gujarat
72|--|KMLIKamliX  23:15-23:17-2m--111.949126mWRChhapi, Gujarat
73|--|UJAUnjha  23:26-23:28-2m--119.364116mWRUnjha, Gujarat
74|--|BHUBhandu Motidau  23:38-23:40-2m--130.05197mWRMahesana, Gujarat
75|--|MSHMahesana Junction  23:53-00:30-37m--141.15995mWRMehsana, Gujarat
76|--|JDNJagudan  00:40-00:42-2m--250.93990mWRKochva Road, Gujarat
77|--|UMNAmbliyasanX  00:54-00:56-2m--258.82990mWRMehsana, Gujarat
78|--|DNWDangarwa  01:12-01:14-2m--266.66683mWRJagudan, Gujarat
79|--|JULJhulasanX  01:20-01:22-2m--273.12377mWRMehsana, Gujarat
80|--|PNPansar  01:28-01:30-2m--275.46774mWRPalanpur, Gujarat
81|--|ENIsand  01:32-01:34-2m--277.73277mWRKhodiyar, Gujarat
82|--|KLLKalolX  01:44-02:00-16m--283.06571mWRKalol, Gujarat
83/--|KHDKhodiyar  02:10-02:12-2m--293.711265mWRGandhinagar, Gujarat
84/==|CLDYChandlodiya  02:23-02:25-2m--2114.32859mWRAhmedabad, Gujarat
85/==/SBISabarmati Junction  02:37-02:39-2m--2119.9555mWRAhmadabad, Gujarat
86/==/ADIAhmedabad Junction•  03:40--102125.4-51mWRAhmedabad, Gujarat
Scroll to Top
Scroll to Bottom


Go to Mobile site